This demonstration page uses our WeatherBlox Daily Observations layout. Learn more.

Left ArrowRight Arrow

40.92501, -98.34201

Hourly Observations for August 22, 2020

Temp ( °F °C ) Dew Point ( °F °C ) Humidity (%) Winds ( mph kmh ) Pressure ( in mb ) Visibility ( mi km ) Precip ( " mm )
12:53 am 00:53 Clear 70 21.1 63 17.2 79 79 S 7 11 29.85 1011 10 16 0.00 0.00
1:53 am 01:53 Clear 69 20.6 62 16.7 78 78 S 7 11 29.85 1011 10 16 0.00 0.00
2:53 am 02:53 Clear 69 20.6 62 16.7 78 78 SSW 9 15 29.84 1011 10 16 0.00 0.00
3:53 am 03:53 Clear 70 21.1 61 16.1 73 73 SSW 8 13 29.84 1011 10 16 0.00 0.00
4:53 am 04:53 Clear 69 20.6 61 16.1 76 76 SW 10 17 29.85 1011 10 16 0.00 0.00
5:53 am 05:53 Clear 68 20 61 16.1 78 78 SW 9 15 29.85 1011 10 16 0.00 0.00
6:53 am 06:53 Sunny 66 18.9 60 15.6 81 81 SSW 7 11 29.86 1011 10 16 0.00 0.00
7:53 am 07:53 Sunny 68 20 61 16.1 78 78 SW 7 11 29.87 1012 10 16 0.00 0.00
8:53 am 08:53 Sunny 72 22.2 62 16.7 71 71 SSW 8 13 29.87 1012 10 16 0.00 0.00
9:53 am 09:53 Sunny 77 25 63 17.2 62 62 SSW 8 13 29.87 1012 10 16 0.00 0.00
10:53 am 10:53 Sunny 82 27.8 65 18.3 56 56 SSW 6 9 29.88 1012 10 16 0.00 0.00
11:53 am 11:53 Sunny 85 29.4 65 18.3 51 51 SSW 8 13 29.87 1012 10 16 0.00 0.00
12:53 pm 12:53 Sunny 88 31.1 66 18.9 48 48 VRB 6 9 29.87 1011 10 16 0.00 0.00
1:53 pm 13:53 Sunny 89 31.7 68 20 50 50 SSE 7 11 29.86 1011 10 16 0.00 0.00
2:53 pm 14:53 Sunny 90 32.2 67 19.4 47 47 SSE 10 17 29.85 1011 10 16 0.00 0.00
3:53 pm 15:53 Sunny 92 33.3 67 19.4 44 44 SSE 10 17 29.84 1011 10 16 0.00 0.00
4:53 pm 16:53 Sunny 93 33.9 66 18.9 41 41 SW 12 19 29.84 1010 10 16 0.00 0.00
5:53 pm 17:53 Sunny 92 33.3 63 17.2 38 38 SSW 12 19 29.84 1011 10 16 0.00 0.00
6:53 pm 18:53 Sunny 90 32.2 65 18.3 44 44 S 7 11 29.85 1011 10 16 0.00 0.00
7:53 pm 19:53 Sunny 85 29.4 68 20 57 57 SSE 6 9 29.86 1011 10 16 0.00 0.00
8:53 pm 20:53 Clear 79 26.1 71 21.7 77 77 SE 7 11 29.87 1012 10 16 0.00 0.00
9:53 pm 21:53 Clear 77 25 70 21.1 79 79 SSE 3 6 29.88 1012 10 16 0.00 0.00
10:53 pm 22:53 Clear 76 24.4 68 20 77 77 S 7 11 29.89 1012 9 14 0.00 0.00
11:53 pm 23:53 Clear 74 23.3 66 18.9 76 76 S 7 11 29.89 1012 10 16 0.00 0.00

Powered by AerisWeather